Back to catalog

FENGYUN 1C DEB

LostSSO
NORAD 32429·DEBRIS·🇨🇳 China

Launched May 10, 1999 from Taiyuan Satellite Launch Center

Loading…

Next Passes (next 24 hours)

TLE

StaleSource: Space-Track

Epoch: Apr 17, 2023, 14:01 UTC

1 32429U 99025DAR 23107.58413113  .00013023  00000-0  59789-2 0  9993
2 32429  99.0848 232.9340 0066280 189.7312 170.2584 14.20188749815551

Track FENGYUN 1C DEB in real time with AllMySat

Download on the App Store